Wind_Speed
20 21 19 18 19 18 17 16 16 17 17 19 20 21 21 21 21 20 21 20 22 21 19 19 20 20 20 19 18 17 17 16 16 16 16 16 16 16 16 14 14 13 13 13
21 20 18 18 19 19 19 18 16 16 19 19 20 21 21 23 22 20 21 21 20 20 19 20 20 20 20 19 18 18 17 16 16 16 16 16 16 16 15 14 14 14 14 14
20 19 18 20 21 20 21 20 18 18 19 21 21 22 21 22 22 22 22 22 21 22 21 20 20 20 20 19 19 19 18 17 17 16 16 17 17 17 17 16 15 15 15 14
20 19 20 21 22 22 22 21 20 18 18 20 21 23 22 22 23 23 23 23 23 22 22 21 20 20 20 20 19 19 18 18 17 17 17 18 18 18 17 18 17 16 16 15
20 21 22 22 22 21 21 21 21 20 19 21 21 22 22 22 24 23 23 24 23 23 22 21 20 21 21 20 19 19 19 19 19 18 18 18 19 19 19 19 18 18 17 16
20 20 21 22 21 21 21 21 21 21 21 23 21 21 23 23 24 22 23 23 23 24 23 22 22 22 21 21 20 19 19 20 19 19 19 19 19 20 19 19 19 19 18 17
21 21 21 22 21 22 22 21 20 21 21 21 18 19 22 21 22 23 23 23 23 24 24 22 22 21 21 21 21 20 20 20 20 20 19 20 20 20 20 19 19 19 18 17
19 21 20 22 23 22 22 22 20 19 19 19 19 21 21 20 21 23 24 25 24 23 24 23 22 22 21 20 20 20 20 20 20 20 20 20 20 20 20 20 20 20 19 19
19 20 20 22 22 22 22 22 20 20 19 20 20 21 23 22 23 23 23 23 24 24 23 22 21 21 21 20 20 20 20 20 20 21 21 21 21 21 21 21 21 20 20 20
21 21 21 22 23 24 23 21 21 23 22 22 21 20 20 22 23 22 22 23 23 22 21 21 21 21 21 20 21 20 20 20 20 21 21 21 22 22 22 22 22 21 21 22
23 23 21 21 24 23 23 24 24 23 23 23 22 20 21 22 22 22 22 22 21 19 20 21 20 21 22 21 21 20 21 21 21 21 22 22 23 23 23 23 22 22 22 22
24 24 23 22 22 23 24 25 25 26 25 25 24 24 21 22 23 24 24 23 22 21 21 21 21 21 21 22 21 21 21 22 22 22 23 24 24 23 23 23 23 23 23 22
26 26 25 23 22 22 24 25 26 27 27 27 25 25 22 23 24 25 24 24 23 23 22 22 22 22 21 22 22 22 23 23 24 24 24 24 24 23 23 23 23 23 23 22
26 27 26 24 22 23 24 25 27 28 28 28 27 26 24 24 24 24 24 24 24 24 24 23 23 22 22 22 22 23 24 24 24 24 25 25 24 24 24 23 22 22 22 23
27 28 27 27 25 25 26 26 27 27 28 28 26 26 25 23 24 24 25 25 25 24 24 24 24 23 22 22 22 23 24 24 25 25 25 24 25 24 24 23 22 22 23 23
27 27 27 27 26 26 27 26 25 26 28 28 27 28 27 25 26 26 27 27 25 24 24 24 25 24 23 23 23 22 23 25 25 25 26 25 25 25 24 23 22 22 23 23
26 27 27 27 27 28 28 26 26 26 27 28 29 29 28 27 29 28 28 27 27 27 27 27 26 26 25 25 25 24 24 24 25 26 26 24 24 23 22 22 22 22 22 22
25 26 26 27 27 27 26 26 25 26 28 28 30 30 30 29 29 29 27 28 28 28 28 28 27 26 26 26 25 25 25 25 25 25 25 25 24 23 22 22 22 21 21 21
24 24 25 25 27 27 26 25 24 25 27 27 29 30 31 31 30 29 28 28 28 27 27 27 26 26 25 26 26 25 25 25 25 24 24 25 24 23 23 22 22 22 22 21
23 24 26 26 26 26 26 25 25 26 27 27 29 30 31 29 29 29 28 27 27 27 27 27 27 26 26 25 26 27 26 26 25 24 24 25 24 23 23 22 22 22 22 21
22 25 26 27 27 27 26 25 25 26 27 28 29 30 31 29 28 28 28 28 27 27 27 27 27 27 26 26 26 27 27 26 25 25 25 24 24 23 23 22 22 22 22 22
22 23 24 26 27 27 26 27 27 27 28 29 28 29 29 29 29 29 29 28 27 27 28 28 28 27 27 27 27 27 26 26 25 24 24 24 24 23 23 23 22 22 22 21
23 23 23 25 26 26 26 27 27 28 28 29 29 29 29 29 31 31 29 28 28 28 28 29 28 27 27 26 27 27 26 26 25 25 24 24 24 23 23 23 22 22 22 21
22 22 24 25 26 26 26 26 25 27 29 29 29 29 29 29 30 30 29 28 27 27 27 28 27 26 26 26 26 25 25 25 25 25 25 25 25 24 23 23 22 21 20 20
23 22 23 24 25 26 26 25 24 25 26 26 28 28 28 28 28 28 28 28 27 27 26 26 25 25 25 25 25 24 24 24 24 24 25 25 26 24 23 22 22 21 20 20
23 23 23 22 23 24 25 24 24 23 23 24 25 26 26 26 26 26 26 26 27 27 27 25 25 25 25 26 25 25 24 24 24 24 25 25 25 23 22 21 21 20 20 19
Wind_Direction
238 239 238 240 240 241 241 245 251 255 251 255 258 257 261 266 269 269 271 273 274 272 268 268 268 270 274 276 277 278 281 285 286 287 286 286 287 287 291 291 290 291 289 285
242 241 239 238 238 237 237 238 242 249 252 251 253 254 259 266 269 270 270 272 272 268 265 265 269 271 273 273 274 274 276 279 283 285 283 284 287 286 287 288 290 290 287 282
244 243 240 237 237 239 238 239 238 241 250 254 259 259 259 262 268 269 270 269 269 269 269 269 269 272 274 273 274 273 273 276 279 281 280 283 286 287 288 286 286 287 284 282
239 238 239 238 237 238 241 243 242 241 248 254 262 265 262 261 266 268 269 269 268 269 268 270 269 270 271 273 273 270 269 272 275 277 279 282 285 286 286 286 284 285 282 280
237 237 238 239 239 241 242 242 245 245 248 249 251 262 264 261 263 267 272 271 271 271 270 269 270 270 270 271 270 269 269 271 272 275 279 282 285 285 285 285 282 282 277 276
238 238 242 241 240 242 242 243 244 247 249 251 250 255 261 262 268 269 272 270 269 271 272 271 268 266 267 268 268 268 270 271 270 273 276 280 282 282 282 282 281 280 276 277
242 241 243 243 241 241 240 242 245 249 251 257 258 255 260 263 265 268 270 267 267 270 271 267 263 265 265 266 267 268 268 269 269 270 272 277 279 279 279 280 280 278 276 276
243 245 244 244 243 243 242 241 243 249 256 259 256 253 258 262 263 266 268 268 268 267 269 267 264 264 265 266 268 269 268 268 267 268 271 275 277 278 278 279 278 276 275 276
237 244 242 245 244 240 239 238 238 243 248 255 255 255 253 258 263 262 266 271 269 269 269 268 266 262 262 266 268 269 269 269 266 267 270 273 276 277 276 277 276 273 273 274
237 240 239 246 247 242 240 239 234 233 238 246 255 258 259 262 262 264 265 269 267 267 267 266 263 261 262 266 267 268 268 269 268 268 269 272 274 274 274 274 273 273 274 273
239 242 241 241 245 243 238 236 234 235 240 247 253 256 257 258 259 263 265 268 264 265 266 266 262 262 263 264 266 267 267 269 271 270 271 272 273 272 273 272 272 272 272 270
242 244 243 240 243 245 240 238 236 236 238 241 248 255 255 258 261 266 264 264 265 263 263 264 264 263 265 265 266 267 268 268 269 270 271 271 272 271 272 272 270 270 269 267
241 242 244 242 241 243 243 239 239 242 242 244 247 257 258 258 261 263 263 265 265 263 263 263 264 264 266 268 267 268 268 268 269 270 270 272 271 270 271 270 269 268 266 266
243 242 241 240 239 242 242 241 241 242 246 247 249 254 255 259 259 264 264 264 264 263 263 262 264 266 267 267 266 267 268 268 268 269 271 272 272 271 271 270 268 267 266 268
246 246 244 241 239 239 242 243 243 243 245 245 249 251 251 256 259 262 265 264 262 261 261 261 263 264 268 269 268 268 269 268 268 269 271 272 273 273 270 267 266 267 266 267
250 249 247 243 243 243 242 243 245 247 249 248 248 249 248 251 256 259 262 260 259 261 262 262 263 263 266 268 268 270 269 268 268 270 271 272 271 271 268 266 268 268 267 268
251 250 248 245 243 246 247 245 246 246 248 249 250 252 252 254 255 255 257 258 260 262 264 264 264 265 267 268 269 270 271 272 272 270 272 273 271 271 268 266 267 267 267 270
252 250 249 247 247 249 246 248 249 249 248 250 250 252 252 253 255 256 257 257 258 261 264 264 264 263 264 267 270 269 269 270 272 272 271 272 272 270 269 269 270 271 271 270
251 249 250 251 250 251 250 249 249 252 252 250 250 250 251 254 257 256 254 255 258 259 261 263 264 265 266 266 269 270 268 270 272 271 270 270 271 271 271 271 271 271 270 267
252 248 248 249 253 252 252 253 252 252 254 250 249 251 252 256 254 253 254 256 258 258 258 260 262 265 267 268 268 270 270 271 272 272 271 270 270 271 270 270 270 268 268 269
254 251 249 248 252 253 251 251 251 251 250 250 252 252 252 254 254 254 256 257 258 257 257 258 261 265 267 269 270 269 271 271 271 270 271 270 269 269 268 268 268 268 267 269
253 252 251 250 252 254 252 251 252 254 254 253 253 254 255 255 256 257 257 257 256 255 256 258 261 265 267 268 269 269 270 269 270 270 270 270 268 267 267 267 266 267 268 268
247 249 249 249 252 253 254 253 253 254 255 256 255 254 258 257 254 256 256 254 256 256 257 259 262 265 265 266 267 266 266 267 268 269 268 268 268 268 266 265 266 265 266 267
249 251 249 249 250 252 253 252 252 253 255 256 253 253 254 256 256 255 255 255 256 258 259 260 261 264 264 265 264 263 264 266 267 267 267 266 266 265 264 263 263 264 265 266
252 251 251 252 253 255 255 256 257 258 257 257 256 255 257 258 258 257 255 255 257 258 258 259 259 259 261 263 263 263 263 264 265 266 266 265 265 263 263 265 262 261 264 266
252 253 257 258 256 256 259 261 261 260 260 259 257 256 256 257 256 256 256 257 258 258 260 260 258 258 259 260 260 261 262 262 264 264 263 263 263 262 263 264 264 263 265 266
Height
5823 5826 5828 5832 5834 5837 5839 5840 5842 5844 5846 5846 5846 5847 5847 5847 5848 5848 5848 5848 5849 5848 5848 5849 5849 5850 5850 5850 5850 5850 5850 5850 5850 5850 5850 5849 5849 5849 5849 5849 5849 5848 5848 5848
5819 5822 5826 5828 5830 5832 5834 5836 5838 5841 5841 5841 5842 5843 5844 5843 5843 5844 5844 5844 5844 5844 5844 5844 5845 5845 5846 5846 5847 5847 5847 5847 5847 5847 5847 5847 5847 5847 5846 5846 5846 5845 5845 5845
5815 5820 5821 5823 5825 5827 5829 5832 5835 5836 5837 5837 5838 5839 5840 5840 5839 5840 5840 5840 5840 5839 5839 5840 5841 5841 5842 5842 5843 5843 5843 5843 5843 5843 5844 5844 5844 5844 5843 5843 5843 5843 5842 5842
5811 5815 5817 5818 5821 5823 5825 5828 5829 5831 5833 5833 5835 5834 5836 5835 5835 5835 5836 5835 5834 5835 5835 5835 5835 5836 5837 5838 5838 5839 5839 5839 5839 5840 5841 5841 5841 5841 5841 5840 5840 5840 5840 5840
5806 5809 5812 5814 5817 5818 5821 5823 5825 5826 5827 5829 5830 5830 5831 5830 5830 5830 5830 5830 5830 5830 5830 5831 5832 5832 5832 5833 5833 5834 5835 5836 5836 5836 5837 5838 5838 5838 5838 5837 5836 5836 5837 5837
5802 5805 5807 5809 5812 5814 5816 5818 5819 5821 5822 5823 5825 5826 5826 5825 5825 5825 5826 5825 5825 5825 5826 5826 5827 5827 5827 5828 5829 5830 5831 5831 5832 5832 5833 5833 5834 5834 5834 5833 5833 5833 5833 5833
5797 5800 5802 5804 5807 5809 5811 5813 5815 5816 5816 5818 5820 5821 5821 5821 5820 5820 5821 5821 5821 5821 5821 5822 5822 5822 5822 5823 5824 5825 5826 5827 5827 5828 5828 5829 5829 5829 5829 5829 5829 5829 5829 5829
5793 5796 5797 5799 5802 5804 5806 5809 5811 5813 5814 5815 5816 5816 5816 5816 5816 5816 5816 5816 5816 5816 5816 5816 5817 5817 5818 5818 5819 5820 5821 5822 5822 5823 5823 5824 5824 5824 5824 5824 5824 5824 5824 5825
5788 5791 5793 5794 5796 5798 5800 5803 5806 5809 5809 5810 5810 5810 5811 5811 5811 5811 5811 5811 5811 5810 5811 5811 5811 5812 5812 5813 5814 5815 5816 5817 5817 5818 5818 5819 5819 5819 5819 5819 5819 5819 5819 5820
5783 5785 5787 5789 5791 5794 5796 5798 5801 5802 5803 5804 5805 5805 5805 5805 5805 5806 5806 5806 5805 5805 5806 5806 5806 5807 5807 5807 5809 5810 5811 5811 5812 5813 5813 5813 5813 5813 5813 5814 5814 5814 5815 5815
5776 5779 5782 5784 5785 5788 5790 5792 5793 5795 5797 5799 5800 5802 5800 5798 5799 5800 5800 5800 5800 5801 5801 5801 5801 5802 5803 5804 5805 5805 5806 5806 5807 5807 5808 5808 5808 5808 5808 5808 5809 5809 5809 5809
5770 5772 5774 5777 5780 5781 5784 5785 5788 5789 5791 5792 5793 5796 5793 5793 5793 5794 5794 5795 5796 5796 5796 5796 5796 5797 5798 5799 5800 5800 5801 5801 5802 5802 5802 5802 5803 5803 5803 5803 5803 5803 5803 5804
5763 5766 5768 5771 5775 5776 5777 5779 5781 5783 5784 5785 5787 5790 5788 5788 5788 5788 5788 5789 5790 5791 5791 5792 5792 5793 5793 5794 5794 5795 5795 5796 5796 5796 5796 5796 5797 5797 5797 5797 5797 5797 5798 5798
5757 5759 5762 5765 5768 5769 5770 5772 5774 5775 5776 5778 5780 5780 5781 5781 5782 5783 5783 5784 5785 5785 5786 5786 5786 5787 5788 5788 5788 5789 5789 5790 5790 5790 5790 5790 5790 5791 5790 5790 5791 5791 5792 5792
5750 5752 5754 5757 5759 5761 5763 5765 5767 5768 5770 5772 5774 5774 5776 5775 5775 5777 5777 5778 5779 5780 5780 5780 5781 5782 5782 5782 5783 5783 5783 5783 5783 5783 5784 5784 5784 5784 5784 5784 5785 5785 5785 5786
5742 5745 5747 5750 5752 5753 5754 5757 5760 5761 5763 5765 5767 5767 5768 5768 5769 5770 5771 5772 5773 5774 5774 5775 5775 5775 5776 5776 5776 5776 5777 5777 5777 5777 5777 5777 5777 5778 5778 5778 5779 5779 5779 5780
5736 5738 5740 5743 5745 5745 5747 5750 5752 5753 5755 5757 5759 5761 5761 5761 5762 5763 5764 5766 5767 5768 5768 5769 5769 5769 5770 5770 5770 5770 5771 5770 5770 5770 5770 5770 5771 5771 5772 5772 5773 5773 5773 5773
5730 5731 5733 5735 5737 5737 5743 5743 5744 5746 5748 5750 5751 5752 5753 5754 5754 5756 5758 5759 5760 5761 5762 5762 5762 5763 5764 5764 5764 5764 5764 5764 5764 5764 5764 5764 5764 5765 5765 5766 5766 5767 5767 5767
5723 5725 5727 5729 5730 5731 5734 5736 5737 5738 5740 5742 5743 5744 5745 5746 5747 5748 5750 5752 5753 5754 5755 5755 5755 5756 5758 5758 5757 5757 5758 5758 5757 5757 5758 5758 5758 5759 5759 5760 5760 5761 5761 5761
5717 5719 5721 5722 5723 5725 5728 5729 5729 5731 5732 5734 5734 5736 5737 5738 5740 5741 5742 5744 5745 5746 5748 5748 5749 5750 5751 5751 5751 5751 5751 5751 5751 5751 5751 5751 5752 5752 5753 5753 5754 5754 5754 5754
5711 5712 5714 5716 5716 5717 5720 5721 5722 5725 5725 5726 5726 5727 5729 5730 5732 5734 5735 5736 5737 5738 5740 5741 5742 5743 5743 5744 5744 5744 5744 5744 5744 5744 5744 5745 5745 5746 5746 5747 5747 5748 5748 5748
5705 5706 5708 5709 5710 5713 5713 5714 5715 5716 5716 5717 5718 5720 5721 5723 5725 5726 5727 5727 5729 5731 5732 5734 5735 5735 5736 5736 5736 5737 5737 5737 5737 5737 5738 5738 5739 5739 5740 5740 5741 5741 5742 5742
5698 5701 5702 5703 5705 5705 5706 5707 5708 5709 5709 5710 5712 5713 5714 5715 5717 5718 5719 5721 5723 5724 5725 5726 5727 5728 5728 5729 5729 5729 5730 5730 5730 5731 5731 5732 5733 5733 5733 5734 5734 5735 5735 5735
5693 5694 5695 5696 5697 5697 5698 5698 5700 5701 5702 5702 5704 5706 5707 5708 5710 5711 5713 5714 5715 5717 5717 5718 5719 5720 5721 5722 5722 5722 5723 5723 5724 5724 5724 5724 5725 5726 5726 5727 5728 5728 5729 5729
5686 5687 5688 5689 5690 5690 5691 5692 5693 5694 5695 5695 5696 5698 5699 5701 5702 5703 5705 5706 5708 5709 5710 5710 5711 5713 5714 5714 5715 5715 5716 5716 5717 5717 5717 5718 5718 5719 5719 5720 5721 5722 5722 5723
5680 5681 5682 5682 5683 5684 5685 5686 5686 5686 5687 5688 5689 5690 5692 5693 5695 5696 5697 5699 5700 5701 5702 5703 5704 5706 5707 5707 5708 5709 5709 5710 5711 5711 5711 5711 5711 5712 5712 5713 5715 5715 5716 5716